TimeEST,TemperatureF,Dew PointF,Humidity,Sea Level PressureIn,VisibilityMPH,Wind Direction,Wind SpeedMPH,Gust SpeedMPH,PrecipitationIn,Events,Conditions,WindDirDegrees,DateUTC
12:56 AM,39.0,26.1,60,30.17,10.0,South,12.7,-,N/A,,Clear,190,2013-02-19 05:56:00
1:56 AM,37.0,24.1,59,30.16,10.0,SSW,5.8,-,N/A,,Clear,210,2013-02-19 06:56:00
2:56 AM,37.9,28.0,68,30.14,10.0,SSW,10.4,-,N/A,,Clear,200,2013-02-19 07:56:00
3:56 AM,37.9,26.1,62,30.11,10.0,SSW,12.7,-,N/A,,Clear,200,2013-02-19 08:56:00
4:56 AM,39.0,27.0,62,30.07,10.0,SSW,15.0,-,N/A,,Clear,200,2013-02-19 09:56:00
5:56 AM,39.0,26.1,60,30.07,10.0,SSW,13.8,-,N/A,,Clear,210,2013-02-19 10:56:00
6:56 AM,39.0,27.0,62,30.06,10.0,SSW,16.1,-,N/A,,Mostly Cloudy,200,2013-02-19 11:56:00
7:56 AM,37.9,27.0,65,30.05,10.0,South,17.3,-,N/A,,Mostly Cloudy,190,2013-02-19 12:56:00
8:56 AM,39.0,28.9,67,30.04,10.0,SSW,13.8,-,N/A,,Overcast,210,2013-02-19 13:56:00
9:56 AM,39.9,32.0,73,30.00,10.0,SSW,10.4,-,0.02,,Overcast,200,2013-02-19 14:56:00
10:56 AM,41.0,33.1,73,29.99,6.0,SSW,11.5,-,0.02,Rain,Light Rain,200,2013-02-19 15:56:00
11:56 AM,41.0,36.0,82,29.95,6.0,SSW,13.8,-,0.03,Rain,Light Rain,210,2013-02-19 16:56:00
12:56 PM,42.1,37.0,82,29.89,10.0,SSW,11.5,-,0.00,,Overcast,210,2013-02-19 17:56:00
1:03 PM,42.8,37.4,81,29.88,6.0,SSW,12.7,-,0.00,Rain,Light Rain,210,2013-02-19 18:03:00
1:56 PM,42.1,37.9,85,29.84,5.0,SSW,10.4,-,0.01,Rain,Light Rain,210,2013-02-19 18:56:00
2:56 PM,41.0,37.9,89,29.80,5.0,SSW,12.7,-,0.01,,Overcast,200,2013-02-19 19:56:00
3:56 PM,45.0,39.9,82,29.78,6.0,SW,12.7,23.0,N/A,,Overcast,220,2013-02-19 20:56:00
4:56 PM,46.9,39.9,77,29.78,7.0,WSW,11.5,21.9,N/A,,Mostly Cloudy,240,2013-02-19 21:56:00
5:49 PM,46.4,39.2,76,29.79,10.0,West,13.8,24.2,N/A,,Scattered Clouds,260,2013-02-19 22:49:00
5:56 PM,46.0,39.0,76,29.79,10.0,WSW,10.4,24.2,N/A,,Scattered Clouds,240,2013-02-19 22:56:00
7:56 PM,42.1,37.0,82,29.83,10.0,Calm,Calm,-,N/A,,Scattered Clouds,0,2013-02-20 00:56:00
8:56 PM,36.0,34.0,93,29.85,10.0,WNW,5.8,-,N/A,,Clear,300,2013-02-20 01:56:00
9:56 PM,39.9,30.0,68,29.86,10.0,WNW,5.8,-,N/A,,Clear,290,2013-02-20 02:56:00
10:56 PM,41.0,21.9,47,29.87,10.0,WNW,4.6,-,N/A,,Clear,290,2013-02-20 03:56:00
11:56 PM,39.9,19.9,45,29.88,10.0,NW,8.1,-,N/A,,Clear,310,2013-02-20 04:56:00